Wind_Speed
43 42 42 42 42 42 43 43 43 42 41 39 40 41 41 40 40 40 40 39 39 39 38 38 37 37 37 37 38 38 37 38 40 40 41 42 43 44 44 44 44 45 46 46
43 42 43 43 41 41 42 42 42 42 41 39 40 41 41 40 40 40 40 39 38 37 37 37 36 36 36 37 37 38 38 37 38 38 40 41 41 42 43 43 44 44 44 45
43 42 44 44 41 41 41 41 42 42 41 40 41 41 40 40 40 40 40 39 38 37 36 36 37 36 36 37 37 37 37 37 37 37 39 40 40 41 42 42 42 43 43 44
44 44 45 43 41 40 41 41 42 42 41 41 41 40 40 40 40 40 39 38 36 37 36 36 36 37 36 36 36 36 37 37 36 36 37 39 39 40 41 42 42 42 42 43
44 45 45 42 40 40 41 41 41 41 41 40 40 41 40 39 39 38 38 37 37 37 37 36 36 36 35 34 34 34 36 36 36 36 37 38 39 40 40 41 41 42 41 42
43 45 45 43 41 41 42 43 40 40 40 40 40 40 39 39 39 38 38 38 38 37 37 36 35 35 34 34 33 34 35 35 35 35 36 37 38 39 39 40 40 41 41 41
43 44 45 42 41 41 42 41 39 39 39 39 40 40 40 40 39 39 39 39 38 37 36 35 34 34 34 33 33 33 34 34 35 35 35 36 37 38 39 39 39 40 40 40
42 43 43 40 40 40 41 40 40 39 40 40 40 40 40 39 39 39 38 38 37 37 36 35 34 34 33 33 33 33 33 34 35 35 35 35 35 37 38 38 39 39 40 39
41 41 40 40 41 41 41 40 40 40 40 40 40 39 39 39 39 39 37 36 36 35 35 34 34 33 33 32 32 32 32 33 34 35 35 34 35 35 36 37 37 37 38 37
40 39 39 39 39 39 39 40 40 40 39 39 39 39 39 38 38 37 36 35 35 34 34 33 33 33 33 32 32 32 33 33 34 34 35 34 34 34 34 35 37 37 36 36
39 37 37 37 37 37 38 38 38 39 39 38 38 38 38 37 36 36 35 34 34 33 33 33 32 32 32 32 32 32 32 33 33 33 33 34 33 33 34 33 34 35 35 35
35 35 36 35 36 38 38 38 38 38 37 37 37 37 37 36 35 35 34 34 33 32 32 32 31 31 32 32 32 32 32 32 33 33 33 33 33 33 34 34 34 34 34 34
36 37 38 38 38 39 38 38 38 38 37 37 37 37 36 35 34 34 34 33 32 32 31 31 30 30 31 31 31 31 31 32 32 32 32 33 33 33 33 34 34 34 34 34
37 38 38 38 39 39 38 38 38 38 38 37 36 36 34 34 33 33 32 32 31 31 31 30 30 30 30 30 30 30 30 30 30 31 31 31 32 33 34 34 34 34 34 34
36 36 36 37 37 37 37 38 38 38 38 37 36 35 34 33 32 32 31 31 30 30 30 30 30 30 30 30 30 29 29 28 28 29 29 30 30 30 31 32 33 33 34 34
35 35 35 35 35 35 36 37 37 36 35 34 34 33 32 32 32 31 31 30 29 29 29 29 29 29 29 30 30 29 28 28 27 27 27 28 28 28 29 29 30 31 32 32
34 34 34 34 34 34 34 34 34 33 33 33 33 32 32 32 31 31 31 30 29 28 28 28 28 28 29 29 29 28 27 27 26 26 26 26 26 26 27 27 28 29 29 30
30 31 32 32 32 32 32 32 32 32 31 31 32 32 32 32 32 31 30 30 29 29 29 28 28 28 28 28 27 27 26 25 25 25 25 25 25 25 25 25 25 26 27 27
27 27 28 29 29 30 31 31 31 30 30 30 30 31 31 31 30 30 30 29 29 28 28 28 28 27 27 27 26 25 25 24 24 24 24 24 23 23 23 23 23 24 25 25
24 25 25 26 27 28 28 29 29 29 29 30 30 29 29 29 28 28 28 27 27 27 27 27 27 27 27 27 25 24 24 23 23 23 22 21 21 21 21 22 22 23 23 24
22 23 24 25 25 26 26 27 28 29 29 30 29 29 28 28 27 27 26 26 26 26 26 26 26 25 25 25 24 23 23 23 22 21 20 20 19 20 20 21 21 22 22 23
22 23 23 23 24 25 25 26 27 28 28 28 28 27 27 26 26 26 25 24 24 24 24 24 24 23 23 23 22 21 21 20 20 19 19 18 18 19 19 19 20 20 21 21
22 22 22 23 23 24 25 25 26 25 25 25 25 25 24 24 24 23 22 22 22 22 22 22 21 21 21 21 20 19 18 18 18 17 17 17 17 17 17 18 18 18 18 19
22 22 22 23 23 23 23 24 24 24 24 23 24 23 23 22 22 22 22 21 21 20 20 20 20 19 19 19 18 17 16 16 16 15 15 15 15 15 15 15 15 16 17 17
21 22 23 23 23 23 23 23 23 23 23 22 22 22 22 21 20 20 20 20 19 18 18 18 18 18 17 17 16 16 15 14 14 14 14 14 14 14 14 14 14 15 15 16
21 21 21 21 21 21 21 21 22 21 21 21 21 21 21 20 20 19 19 19 18 18 18 17 17 17 17 17 16 15 14 13 13 13 13 13 12 12 12 12 13 14 14 15
20 20 20 20 19 20 20 20 20 19 19 20 20 20 20 19 19 18 18 18 17 17 17 17 16 16 16 15 15 14 14 14 13 13 12 12 11 11 11 11 12 13 13 14
Wind_Direction
268 270 271 273 275 276 278 281 282 284 285 288 287 287 288 288 288 287 287 286 285 284 283 283 280 277 275 275 273 272 270 266 264 262 260 259 257 256 254 253 253 253 253 253
267 269 270 272 275 278 279 281 282 283 284 286 286 287 288 288 288 287 287 287 286 284 283 281 279 278 275 273 272 271 269 267 264 262 261 259 257 255 255 255 253 252 251 250
268 269 270 272 276 278 279 280 281 283 284 283 284 286 287 288 287 287 288 288 288 286 283 281 279 278 276 274 272 269 268 266 265 263 262 259 258 256 255 255 254 252 251 250
269 270 271 275 276 277 278 279 281 283 283 283 283 284 285 286 287 287 287 287 287 285 283 281 280 279 277 274 272 269 267 266 266 265 265 262 260 257 256 255 253 252 251 252
268 270 273 274 277 278 278 279 281 282 283 283 283 284 285 286 286 287 287 286 285 285 283 281 281 279 277 274 271 269 268 266 265 265 263 262 260 257 255 255 253 252 253 253
267 270 272 274 276 277 278 279 280 282 282 283 283 285 285 285 286 286 286 286 285 285 284 282 281 278 276 274 272 270 269 266 265 264 263 263 262 258 256 255 254 254 253 253
266 269 271 275 277 277 278 280 281 282 283 283 283 285 286 286 286 286 286 285 284 284 283 282 280 278 276 274 272 270 269 267 266 266 266 264 261 258 257 255 254 254 253 253
266 268 272 274 275 276 277 279 281 282 283 283 285 286 287 286 286 286 285 284 283 282 282 281 279 277 276 274 272 270 268 267 267 268 267 265 262 258 256 255 254 253 252 252
266 268 271 272 274 275 276 278 280 282 283 284 285 286 286 286 285 285 284 283 281 281 281 280 278 277 276 275 273 270 269 268 267 267 267 265 262 260 258 256 254 253 252 251
266 268 269 271 273 274 276 277 280 282 282 283 284 285 285 285 284 283 282 281 281 281 280 278 276 275 276 275 274 272 270 268 267 267 266 265 262 260 259 258 255 253 252 252
265 267 268 270 273 274 276 278 280 282 283 283 283 284 285 284 283 282 280 281 280 279 279 278 276 275 274 273 273 273 271 269 269 268 266 263 261 259 258 258 257 254 253 253
265 266 267 269 271 274 277 278 280 281 282 283 283 284 283 283 282 281 280 279 278 278 278 277 275 274 273 273 273 273 271 270 271 269 267 263 261 259 259 259 257 257 256 254
265 267 269 271 273 275 277 278 279 280 281 281 282 283 283 282 281 280 280 278 278 277 277 276 274 273 272 272 273 273 272 272 272 270 267 263 261 260 259 258 258 259 258 255
267 269 272 273 274 274 275 277 279 280 280 281 281 282 281 281 280 279 278 277 277 277 277 276 274 273 273 273 274 274 273 272 271 269 269 265 263 261 260 257 256 257 256 254
269 271 273 273 273 274 275 277 279 280 280 279 280 280 279 279 279 278 277 276 275 276 277 276 274 273 273 274 275 275 274 273 271 270 269 268 264 262 260 258 256 254 253 252
268 270 272 273 274 274 276 278 279 279 278 278 279 279 279 279 278 277 276 274 273 275 276 276 274 273 274 275 275 275 275 274 272 272 270 268 266 263 262 259 256 253 251 248
268 270 272 273 274 276 277 279 279 278 277 277 278 278 278 278 277 277 275 272 273 274 275 276 275 274 274 275 275 275 274 273 272 272 271 269 266 263 262 259 255 251 247 244
273 273 273 274 275 276 277 278 278 279 279 279 278 278 278 278 277 275 272 270 271 273 275 276 275 275 275 275 275 274 274 273 272 273 271 268 265 262 260 258 252 247 243 241
275 276 276 276 276 276 277 278 279 279 280 280 280 279 279 279 277 274 271 270 270 272 273 274 273 274 274 275 274 273 274 273 273 274 272 268 265 262 259 254 248 243 239 239
276 277 278 279 278 278 278 278 278 279 280 280 280 279 279 278 276 273 271 271 271 271 272 272 273 274 273 273 273 273 273 273 273 273 271 267 264 261 257 250 246 242 239 238
280 280 281 280 280 280 280 281 281 280 280 280 279 278 277 276 274 272 271 271 271 271 271 271 271 272 271 271 271 271 273 272 270 270 268 265 262 259 255 250 246 242 239 237
282 282 282 282 282 282 282 283 283 282 281 279 278 277 276 275 273 271 270 270 270 270 270 270 270 270 270 269 269 270 271 269 266 265 264 262 261 258 253 249 244 241 239 237
283 283 284 284 284 283 284 286 286 285 282 280 279 277 277 275 272 269 268 269 269 269 268 268 269 269 268 267 267 267 267 265 264 262 261 260 258 255 249 245 242 240 237 233
285 285 286 287 286 286 287 287 287 285 284 282 280 277 276 275 271 268 268 268 268 267 266 266 266 265 265 265 264 262 262 261 259 258 257 256 255 250 244 239 237 236 234 231
287 287 287 288 288 288 288 288 286 285 283 282 280 277 275 274 272 269 267 267 266 264 264 264 263 261 261 261 260 259 257 257 256 253 252 252 249 245 240 237 235 233 231 228
289 289 289 290 290 289 290 290 289 286 283 281 279 277 275 273 271 268 266 265 264 263 262 263 262 260 259 258 256 254 251 249 249 247 244 244 242 239 236 232 229 225 222 221
291 291 290 291 291 292 293 293 292 288 285 282 280 278 275 273 271 269 267 264 262 260 260 260 259 259 256 253 250 248 246 245 246 244 241 239 236 232 227 222 219 216 215 215
Height
5577 5577 5576 5576 5577 5575 5573 5571 5569 5569 5568 5568 5563 5559 5557 5554 5552 5549 5546 5544 5541 5539 5536 5534 5531 5529 5527 5526 5524 5523 5522 5522 5522 5522 5523 5523 5525 5526 5528 5531 5533 5535 5538 5540
5564 5565 5563 5563 5565 5564 5562 5560 5558 5556 5557 5557 5551 5548 5546 5544 5541 5538 5536 5533 5530 5528 5525 5523 5521 5519 5517 5516 5514 5513 5512 5511 5511 5512 5512 5513 5514 5515 5517 5519 5521 5523 5525 5528
5551 5552 5549 5551 5556 5553 5551 5550 5547 5545 5547 5544 5541 5538 5535 5533 5530 5527 5525 5522 5520 5517 5515 5513 5511 5509 5507 5505 5504 5503 5502 5502 5501 5501 5501 5502 5503 5504 5506 5508 5509 5511 5513 5516
5538 5539 5537 5544 5543 5541 5539 5538 5536 5534 5534 5532 5529 5527 5525 5522 5519 5517 5514 5512 5509 5507 5504 5502 5500 5498 5496 5495 5493 5492 5492 5492 5491 5491 5491 5491 5492 5493 5495 5496 5498 5500 5502 5504
5526 5524 5525 5530 5530 5529 5527 5526 5526 5523 5521 5519 5517 5515 5514 5511 5508 5506 5503 5501 5498 5496 5494 5492 5489 5487 5486 5484 5483 5482 5482 5481 5481 5480 5480 5480 5481 5482 5483 5485 5487 5488 5491 5493
5513 5512 5513 5519 5518 5516 5514 5514 5515 5511 5509 5508 5505 5504 5504 5500 5497 5495 5492 5489 5487 5484 5482 5480 5478 5476 5475 5474 5473 5473 5472 5471 5471 5470 5470 5470 5470 5471 5472 5474 5476 5478 5480 5482
5502 5500 5501 5506 5505 5503 5503 5503 5502 5499 5497 5496 5494 5493 5491 5488 5486 5483 5481 5478 5475 5473 5471 5469 5468 5466 5465 5464 5463 5463 5462 5461 5461 5460 5460 5459 5460 5460 5461 5463 5465 5467 5469 5471
5490 5489 5493 5493 5492 5491 5490 5489 5488 5487 5485 5484 5482 5480 5478 5476 5473 5471 5469 5467 5465 5463 5461 5459 5457 5456 5455 5454 5453 5452 5452 5451 5451 5450 5450 5449 5449 5450 5450 5452 5453 5455 5457 5459
5479 5481 5481 5480 5479 5478 5478 5477 5476 5474 5473 5472 5470 5468 5466 5464 5461 5459 5457 5456 5454 5452 5451 5449 5447 5446 5445 5444 5443 5442 5442 5441 5440 5440 5440 5439 5439 5439 5440 5441 5443 5444 5446 5449
5467 5469 5469 5468 5466 5466 5466 5465 5464 5463 5461 5459 5458 5456 5454 5452 5450 5448 5446 5444 5443 5442 5440 5439 5437 5435 5434 5433 5433 5432 5432 5431 5430 5430 5430 5429 5429 5430 5430 5431 5432 5434 5436 5438
5455 5457 5457 5456 5456 5455 5454 5453 5452 5451 5449 5448 5446 5444 5442 5440 5438 5436 5435 5434 5432 5431 5430 5428 5427 5426 5424 5423 5423 5422 5422 5421 5420 5420 5420 5420 5420 5420 5421 5422 5422 5424 5426 5427
5445 5446 5445 5446 5445 5444 5443 5442 5441 5439 5438 5436 5434 5432 5430 5429 5427 5426 5424 5423 5422 5421 5419 5418 5417 5415 5414 5413 5412 5412 5411 5411 5410 5410 5410 5410 5410 5411 5411 5412 5413 5414 5415 5417
5434 5434 5433 5434 5433 5432 5431 5430 5429 5428 5426 5425 5423 5421 5419 5418 5416 5415 5413 5412 5412 5411 5409 5408 5407 5406 5405 5404 5403 5402 5401 5401 5400 5400 5400 5400 5400 5401 5402 5403 5403 5404 5405 5407
5422 5422 5422 5422 5422 5421 5420 5419 5417 5416 5415 5413 5412 5410 5408 5407 5406 5404 5403 5402 5401 5400 5399 5398 5397 5397 5395 5394 5393 5392 5392 5391 5391 5390 5390 5390 5390 5390 5391 5393 5394 5395 5396 5397
5411 5410 5410 5410 5410 5409 5408 5407 5406 5405 5404 5402 5401 5399 5398 5397 5395 5394 5393 5392 5391 5391 5390 5389 5388 5387 5386 5385 5384 5384 5383 5382 5381 5381 5380 5380 5380 5380 5381 5382 5383 5385 5386 5387
5400 5399 5399 5399 5398 5398 5397 5396 5395 5394 5392 5391 5390 5389 5387 5386 5385 5384 5383 5382 5382 5381 5380 5379 5378 5378 5377 5376 5375 5375 5374 5373 5372 5372 5371 5371 5371 5371 5371 5372 5373 5374 5376 5378
5389 5389 5388 5388 5387 5387 5386 5385 5384 5383 5381 5380 5379 5378 5377 5376 5375 5374 5373 5373 5372 5372 5371 5370 5369 5368 5368 5367 5366 5366 5365 5364 5363 5363 5362 5362 5362 5362 5362 5362 5363 5364 5366 5368
5379 5379 5378 5378 5377 5376 5375 5374 5373 5372 5371 5370 5369 5368 5366 5365 5364 5364 5363 5363 5362 5362 5361 5361 5360 5359 5359 5358 5357 5357 5356 5356 5355 5354 5354 5353 5353 5353 5353 5354 5354 5356 5358 5360
5370 5369 5368 5368 5367 5366 5365 5364 5363 5362 5361 5360 5359 5357 5356 5355 5354 5353 5353 5353 5353 5353 5352 5351 5351 5351 5350 5349 5349 5348 5348 5347 5347 5346 5345 5345 5345 5345 5345 5346 5347 5348 5350 5353
5361 5360 5359 5358 5357 5356 5355 5354 5353 5352 5351 5350 5348 5347 5346 5345 5344 5343 5343 5343 5343 5343 5343 5342 5342 5342 5341 5341 5340 5340 5340 5339 5339 5338 5338 5337 5337 5337 5338 5339 5340 5341 5343 5346
5353 5352 5350 5349 5348 5347 5346 5345 5343 5342 5341 5340 5339 5338 5337 5335 5335 5334 5334 5334 5334 5334 5334 5334 5333 5333 5333 5332 5332 5332 5332 5331 5331 5331 5330 5330 5331 5331 5332 5332 5334 5335 5337 5339
5345 5344 5342 5341 5340 5339 5337 5336 5334 5333 5331 5330 5329 5328 5327 5326 5326 5325 5325 5325 5325 5325 5325 5325 5325 5324 5324 5324 5324 5324 5324 5324 5324 5324 5324 5324 5324 5325 5325 5326 5328 5329 5331 5333
5337 5336 5335 5333 5332 5331 5329 5327 5325 5324 5322 5321 5320 5319 5318 5318 5317 5317 5317 5317 5317 5317 5317 5316 5316 5316 5316 5316 5317 5317 5317 5317 5317 5318 5318 5318 5318 5319 5320 5321 5322 5324 5325 5327
5329 5328 5327 5325 5324 5322 5321 5319 5317 5315 5314 5313 5312 5311 5310 5310 5309 5309 5309 5309 5309 5309 5309 5309 5309 5309 5309 5310 5310 5310 5311 5311 5311 5312 5312 5313 5313 5314 5315 5316 5317 5319 5321 5323
5322 5320 5319 5317 5316 5314 5312 5310 5309 5307 5306 5304 5304 5303 5302 5302 5302 5301 5301 5301 5302 5302 5302 5302 5302 5302 5303 5303 5304 5304 5305 5305 5306 5306 5307 5308 5308 5309 5310 5312 5313 5315 5316 5318
5315 5313 5311 5310 5308 5306 5304 5303 5301 5299 5298 5297 5296 5295 5295 5294 5294 5294 5294 5294 5295 5295 5295 5295 5296 5296 5296 5297 5298 5299 5299 5300 5301 5302 5303 5303 5304 5305 5306 5307 5309 5311 5312 5314
5307 5306 5304 5303 5301 5299 5297 5295 5294 5292 5291 5290 5289 5288 5287 5287 5287 5287 5287 5287 5288 5288 5289 5289 5289 5290 5290 5291 5292 5293 5294 5295 5297 5297 5298 5299 5300 5301 5302 5304 5305 5307 5309 5311